THOR ABLESTAR DEB, 320

Orbit data source: Space-Track

THOR ABLESTAR DEB, 320 is space debris in LEO originally from a launch on Thu, 29 Jun 1961 UTC launched from the Air Force Eastern Test Range (AFETR). Debris objects in space refer to the collection of defunct objects orbiting the Earth. Examples of debris include non-operational satellites, rocket bodies, and fragments generated from explosions, collisions, or faulty payload assembly.

Loading next visibility...
Identifier
320, 1961-015CW
Orbit
LEO
Last TLE update
7 hours ago
Origin
Manufacturer
Unknown
Mission
Spacecraft
Bus & Motor
Unknown
Mass
Unknown
Launch date (UTC)
1961-06-29 (64 years ago)
Launch vehicle
Unknown
Launch site
Air Force Eastern Test Range (AFETR)
Object type
Payload
Rocket body
Debris
Shape & HBR
Unknown
Radar Cross Section
Medium (>0.1 m² and <1 m²)

Expand to show TLE details & history

TLE from 7 hours ago
0 THOR ABLESTAR DEB
1   320U 61015CW  25199.69556024  .00000234  00000-0  11377-3 0  9992
2   320  66.9034 190.2462 0141151 279.7557  78.7626 14.29224402320690
Epoch: 2025-07-18T16:41Z
TLE epoch observation values (Epoch: 2025-07-18T16:41:36.404Z)
Latitude
-0.00008°
Longitude
3.10116°
Altitude
778.096 km
Speed
7.475 km/s
True Right ascension
12h 40m 59s
True Declination
0° 00' 00"
Sunlit
Object was in daylight at epoch
Visualization orbit readout
Latitude
7.61993°
Longitude
5.6252°
Altitude
792.245 km
Speed
7.46 km/s
Apparent Right ascension
14h 06m 36s
Apparent Declination
-52° 28' 60"
Sunlit
Object is in daylight
Visualization observer readout
Local Sidereal Time
12:14:35
Azimuth
163.304° S
Elevation
-5.541°
Doppler factor
1
Orbital elements
Apogee altitude
893.893 km
Perigee altitude
691.459 km
Semi-major axis
7,170.813 km
Eccentricity
0.01412
Inclination
66.9034°
RAAN
190.2462°
Arg. of periapsis
279.7557°
True anomaly
80.35433°
Mean anomaly
78.7626°
Eccentric anomaly
79.55794°
Mean motion
3.5743 °/min
Orbital period
100.72 mins
BSTAR
0.00011377
Loading maneuver chart data...
Loading SW <> Apogee altitude chart data...
|